Flag for Germany Weather past 2 weeks in Erlangen, Bavaria, Germany

Now
45 °F

Passing clouds.


Feels Like: 38 °F
Forecast: 40 / 52 °F
Wind: 13 mph from West

Location: Nuernberg

Current Time: Mar 30, 2015 at 4:43:53 AM

Latest Report: Mar 30, 2015 at 3:50 AM


Visibility: N/A

Pressure: 29.47 "Hg

Humidity: 81%

Dew point: 39 °F

Location of ErlangenLocation

Historic Weather in Erlangen — Graph

°F

Erlangen temperature yesterday

Maximum temperature yesterday: 52 °F (at 9:50 AM)
Minimum temperature yesterday: 45 °F (at 12:20 AM)
Average temperature yesterday: 49 °F

Past Weeks' High & Low Weather Summary

 TemperatureHumidityPressure
High64 °F (Mar 17, 2:50 PM)100% (Mar 15, 6:50 AM)30.27 "Hg (Mar 15, 6:50 AM)
Low27 °F (Mar 21, 2:20 AM)21% (Mar 20, 4:20 PM)29.42 "Hg (Mar 29, 11:50 PM)
Average45 °F68%30.02 "Hg
* Reported Mar 15 2:20 AM — Mar 30 3:20 AM, Erlangen, Weather by CustomWeather, © 2015

Note: Actual official high and low records may vary slightly from our data, if they occured in-between our weather recording intervals... More about our weather records

Advertising

Erlangen weather history for previous 24 hours

 ConditionsComfort  
Time TempWeatherWind HumidityBarometerVisibility
3:20 AM
Mon, Mar 30
45 °FLight rain. Passing clouds.13 mph81%29.47 "HgN/A
2:50 AM45 °FLight rain. Passing clouds.14 mph87%29.47 "HgN/A
2:20 AM45 °FLight rain. Passing clouds.17 mph81%29.47 "HgN/A
1:50 AM45 °FLight rain. Partly cloudy.21 mph81%29.47 "HgN/A
1:20 AM50 °FLight rain. Passing clouds.28 mph82%29.45 "HgN/A
12:50 AM50 °FLight rain. Passing clouds.22 mph82%29.42 "HgN/A
12:20 AM50 °FCool.22 mph82%29.42 "HgN/A
11:50 PM
Sun, Mar 29
50 °FLight rain. Partly cloudy.20 mph82%29.42 "HgN/A
11:20 PM52 °FPassing clouds.21 mph77%29.45 "HgN/A
10:50 PM50 °FPassing clouds.22 mph82%29.45 "HgN/A
10:20 PM50 °FLight rain. Partly cloudy.21 mph82%29.45 "HgN/A
9:50 PM50 °FLight rain. Partly cloudy.16 mph82%29.47 "HgN/A
9:20 PM50 °FLight rain. Passing clouds.18 mph82%29.50 "HgN/A
8:50 PM50 °FLight rain. Partly cloudy.17 mph82%29.50 "HgN/A
8:20 PM50 °FLight rain. Partly sunny.15 mph82%29.53 "HgN/A
7:50 PM50 °FLight rain. Partly sunny.14 mph82%29.53 "HgN/A
7:20 PM50 °FLight rain. Partly sunny.15 mph82%29.56 "HgN/A
6:50 PM50 °FLight rain. Partly sunny.13 mph82%29.56 "HgN/A
6:20 PM50 °FLight rain. Partly sunny.12 mph82%29.56 "HgN/A
5:50 PM50 °FLight rain. Partly sunny.12 mph82%29.59 "HgN/A
5:20 PM50 °FLight rain. Partly sunny.13 mph82%29.62 "HgN/A
4:50 PM50 °FLight rain. Partly sunny.20 mph82%29.65 "HgN/A
4:20 PM50 °FLight rain. Partly sunny.18 mph82%29.65 "HgN/A
3:50 PM50 °FLight rain. Partly sunny.18 mph82%29.65 "HgN/A
3:20 PM50 °FLight rain. Partly sunny.20 mph82%29.68 "HgN/A
2:50 PM50 °FLight rain. Partly sunny.20 mph76%29.68 "HgN/A
2:20 PM50 °FLight rain. Partly sunny.18 mph82%29.71 "HgN/A
1:50 PM50 °FLight rain. Partly sunny.22 mph76%29.71 "HgN/A
1:20 PM52 °FLight rain. Partly sunny.23 mph72%29.74 "HgN/A
12:50 PM52 °FLight rain. Partly sunny.23 mph72%29.74 "HgN/A
12:20 PM52 °FPartly sunny.17 mph77%29.74 "HgN/A
11:50 AM52 °FLight rain. Partly sunny.20 mph77%29.77 "HgN/A
11:20 AM52 °FPartly sunny.20 mph77%29.77 "HgN/A
10:50 AM52 °FPartly sunny.17 mph77%29.77 "HgN/A
10:20 AM52 °FLight rain. Partly sunny.18 mph77%29.80 "HgN/A
9:50 AM52 °FPartly sunny.17 mph77%29.80 "HgN/A
9:20 AM50 °FPartly sunny.15 mph82%29.80 "HgN/A
8:50 AM50 °FPartly sunny.14 mph82%29.80 "HgN/A
8:20 AM50 °FPartly sunny.14 mph82%29.83 "HgN/A
7:50 AM50 °FPassing clouds.16 mph82%29.83 "HgN/A
7:20 AM50 °FPassing clouds.13 mph82%29.83 "HgN/A
6:50 AM48 °FPassing clouds.14 mph87%29.83 "HgN/A
6:20 AM48 °FPassing clouds.7 mph87%29.83 "HgN/A
5:50 AM48 °FPassing clouds.9 mph87%29.86 "HgN/A
5:20 AM46 °FPartly cloudy.7 mph93%29.86 "HgN/A
4:50 AM46 °FLight rain. Passing clouds.6 mph87%29.86 "HgN/A
4:20 AM46 °FPassing clouds.5 mph87%29.89 "HgN/A
Weather by CustomWeather, © 2015

See weather overviewHow to use our weather pages